Zurück zum Katalog

FENGYUN 1C DEB

AktivSSO
NORAD 30306·DEBRIS·🇨🇳 China

Gestartet May 10, 1999 von Taiyuan Satellite Launch Center

Loading…

Nächste Überflüge (nächste 24 Stunden)

TLE

AktuellSource: Space-Track

Epoche: Sep 14, 2026, 08:14 UTC

1 30306U 99025ZT  26257.34351913  .00001405  00000-0  53213-3 0  9995
2 30306  98.5656 298.9013 0110022 267.9643  90.8936 14.29443743 16056

Verfolge FENGYUN 1C DEB in Echtzeit mit AllMySat

Download on the App Store